Location: Arboyeti
(42.1122°N, 44.6017°E)
Time: 20:43:06
(UTC+00:00)

Cosmos 405 Rocket - Pass Details

Date: 19 April 2021
Orbit: 488 x 553 km, 81.3° (Epoch: 17 May)

Event Time Altitude Azimuth Distance (km) Brightness Sun altitude
Rises 17:42:12 0° 346° (NNW) 2,724 7.2 -19.8°
Reaches altitude 10° 17:44:24 10° 344° (NNW) 1,818 6.2 -20.1°
Maximum altitude 17:48:22 62° 263° (W) 607 3.1 -20.7°
Enters shadow 17:49:38 39° 200° (SSW) 814 3.5 -20.8°
